| time (UTC) | temp C | wind direction | speed KPH | gust KPH | rain 1hr cm | rain 24hr cm | rain mn cm | humidity % | barometer mb |
| 20260505100006 | 18 | 52 | 3.2 | 4.8 | 0.25 | 0.76 | 0.51 | 90 | 1020.0 |
| 20260505095004 | 19 | 52 | 4.8 | 4.8 | 0.25 | 0.76 | 0.51 | 90 | 1020.0 |
| 20260505094003 | 20 | 52 | 4.8 | 4.8 | 0.25 | 0.76 | 0.51 | 90 | 1020.0 |
| 20260505093004 | 20 | 52 | 4.8 | 4.8 | 0.25 | 0.76 | 0.51 | 90 | 1020.0 |
| 20260505092003 | 22 | 57 | 4.8 | 6.4 | 0.25 | 0.76 | 0.51 | 90 | 1019.0 |
| 20260505091003 | 22 | 57 | 4.8 | 6.4 | 0.25 | 0.76 | 0.51 | 90 | 1019.0 |
| 20260505090003 | 22 | 57 | 4.8 | 6.4 | 0.25 | 0.76 | 0.51 | 91 | 1019.0 |
| 20260505084004 | 22 | 57 | 4.8 | 6.4 | 0.25 | 0.76 | 0.51 | 90 | 1019.0 |
| 20260505082003 | 22 | 57 | 4.8 | 6.4 | 0.25 | 0.76 | 0.51 | 87 | 1019.0 |
| 20260505081003 | 22 | 57 | 4.8 | 6.4 | 0.25 | 0.76 | 0.51 | 87 | 1019.0 |
| 20260505080003 | 22 | 57 | 4.8 | 6.4 | 0.25 | 0.76 | 0.51 | 90 | 1019.0 |
| 20260505075003 | 22 | 57 | 4.8 | 6.4 | 0.25 | 0.76 | 0.51 | 90 | 1019.0 |
| 20260505074003 | 22 | 57 | 4.8 | 6.4 | 0.25 | 0.76 | 0.51 | 91 | 1019.0 |
| 20260505073004 | 22 | 57 | 4.8 | 6.4 | 0.25 | 0.76 | 0.51 | 91 | 1019.0 |
| 20260505072003 | 22 | 72 | 4.8 | 4.8 | 0.25 | 0.76 | 0.51 | 89 | 1019.0 |
| 20260505071003 | 22 | 72 | 4.8 | 4.8 | 0.25 | 0.76 | 0.51 | 93 | 1019.0 |
| 20260505070003 | 22 | 72 | 4.8 | 4.8 | 0.25 | 0.76 | 0.51 | 93 | 1019.0 |
| 20260505065002 | 22 | 72 | 4.8 | 4.8 | 0.25 | 0.76 | 0.51 | 93 | 1019.0 |
| 20260505064010 | 22 | 72 | 4.8 | 4.8 | 0.25 | 0.76 | 0.51 | 93 | 1019.0 |
| 20260505063003 | 22 | 72 | 4.8 | 4.8 | 0.25 | 0.76 | 0.51 | 92 | 1019.0 |
| 20260505062005 | 22 | 93 | 4.8 | 4.8 | 0.25 | 0.76 | 0.51 | 91 | 1019.0 |
| 20260505061003 | 22 | 93 | 4.8 | 4.8 | 0.25 | 0.76 | 0.51 | 91 | 1019.0 |
| 20260505055003 | 23 | 93 | 4.8 | 4.8 | 0.25 | 0.76 | 0.51 | 90 | 1019.0 |
| 20260505054003 | 23 | 97 | 4.8 | 4.8 | 0.25 | 0.76 | 0.51 | 89 | 1020.0 |
| 20260505053008 | 23 | 97 | 4.8 | 4.8 | 0.25 | 0.76 | 0.51 | 89 | 1020.0 |
| 20260505052003 | 22 | 109 | 4.8 | 4.8 | 0.25 | 0.76 | 0.51 | 88 | 1020.0 |
| 20260505041004 | 23 | 123 | 4.8 | 6.4 | 0.25 | 0.76 | 0.51 | 89 | 1020.0 |
| 20260505040004 | 23 | 123 | 4.8 | 6.4 | 0.25 | 0.76 | 0.51 | 89 | 1020.0 |
| 20260505035004 | 23 | 123 | 4.8 | 6.4 | 0.25 | 0.76 | 0.51 | 89 | 1020.0 |
| 20260505034003 | 13 | 353 | 8.0 | 8.0 | 0.25 | 0.76 | 0.51 | 87 | 1020.0 |
| 20260505033003 | 14 | 353 | 8.0 | 8.0 | 0.25 | 0.76 | 0.51 | 87 | 1020.0 |
| 20260505032008 | 15 | 353 | 8.0 | 8.0 | 0.25 | 0.76 | 0.51 | 87 | 1020.0 |
| 20260505031003 | 15 | 353 | 8.0 | 8.0 | 0.25 | 0.76 | 0.51 | 87 | 1020.0 |
| 20260505030006 | 15 | 353 | 8.0 | 8.0 | 0.25 | 0.76 | 0.51 | 87 | 1020.0 |
| 20260505025003 | 16 | 353 | 8.0 | 8.0 | 0.25 | 0.76 | 0.51 | 87 | 1020.0 |
| 20260505024003 | 16 | 353 | 8.0 | 8.0 | 0.25 | 0.76 | 0.51 | 87 | 1020.0 |
| 20260505023004 | 16 | 353 | 8.0 | 8.0 | 0.25 | 0.76 | 0.51 | 87 | 1020.0 |
| 20260505022003 | 17 | 353 | 8.0 | 8.0 | 0.25 | 0.76 | 0.51 | 87 | 1019.0 |
| 20260505020004 | 17 | 353 | 8.0 | 8.0 | 0.25 | 0.76 | 0.51 | 87 | 1019.0 |
| 20260505015002 | 18 | 353 | 8.0 | 8.0 | 0.25 | 0.76 | 0.51 | 87 | 1019.0 |
| 20260505014003 | 18 | 353 | 8.0 | 8.0 | 0.25 | 0.76 | 0.51 | 87 | 1019.0 |
| 20260505012005 | 18 | 353 | 8.0 | 8.0 | 0.25 | 0.76 | 0.51 | 86 | 1019.0 |
| 20260505011002 | 18 | 353 | 8.0 | 8.0 | 0.25 | 0.76 | 0.51 | 86 | 1019.0 |
| 20260505010009 | 19 | 353 | 8.0 | 8.0 | 0.25 | 0.76 | 0.51 | 86 | 1019.0 |
| 20260505005005 | 19 | 353 | 8.0 | 8.0 | 0.25 | 0.76 | 0.51 | 86 | 1019.0 |
| 20260505004003 | 19 | 353 | 8.0 | 8.0 | 0.25 | 0.76 | 0.51 | 86 | 1019.0 |
| 20260505003002 | 20 | 353 | 8.0 | 8.0 | 0.25 | 0.76 | 0.51 | 86 | 1019.0 |
| 20260505002004 | 20 | 353 | 8.0 | 8.0 | 0.25 | 0.76 | 0.51 | 85 | 1019.0 |
| 20260505001003 | 20 | 353 | 8.0 | 8.0 | 0.25 | 0.76 | 0.51 | 85 | 1019.0 |
| 20260505000003 | 20 | 353 | 8.0 | 8.0 | 0.25 | 0.76 | 0.51 | 83 | 1019.0 |
| 20260504235003 | 20 | 353 | 8.0 | 8.0 | 0.25 | 0.76 | 0.51 | 83 | 1019.0 |
| 20260504234003 | 20 | 353 | 8.0 | 8.0 | 0.25 | 0.76 | 0.51 | 83 | 1019.0 |
| 20260504233002 | 20 | 353 | 8.0 | 8.0 | 0.25 | 0.76 | 0.51 | 83 | 1019.0 |
| 20260504232003 | 20 | 353 | 8.0 | 8.0 | 0.25 | 0.76 | 0.51 | 83 | 1018.0 |
| 20260504231003 | 20 | 353 | 8.0 | 8.0 | 0.25 | 0.76 | 0.51 | 83 | 1018.0 |
| 20260504230003 | 20 | 353 | 8.0 | 8.0 | 0.25 | 0.76 | 0.51 | 83 | 1018.0 |
| 20260504224002 | 21 | 353 | 8.0 | 8.0 | 0.25 | 0.76 | 0.51 | 81 | 1018.0 |
| 20260504223004 | 21 | 353 | 8.0 | 8.0 | 0.25 | 0.76 | 0.51 | 78 | 1017.0 |
| 20260504222004 | 21 | 353 | 8.0 | 8.0 | 0.25 | 0.76 | 0.51 | 78 | 1017.0 |
| 20260504221003 | 21 | 353 | 8.0 | 8.0 | 0.25 | 0.76 | 0.51 | 78 | 1017.0 |
| 20260504220004 | 21 | 353 | 8.0 | 8.0 | 0.25 | 0.76 | 0.51 | 78 | 1017.0 |
| 20260504214004 | 21 | 353 | 8.0 | 8.0 | 0.25 | 0.76 | 0.51 | 78 | 1017.0 |
| 20260504213004 | 21 | 353 | 8.0 | 8.0 | 0.25 | 0.76 | 0.51 | 78 | 1017.0 |
| 20260504212003 | 21 | 353 | 8.0 | 8.0 | 0.25 | 0.76 | 0.51 | 78 | 1017.0 |
| 20260504210004 | 21 | 353 | 8.0 | 8.0 | 0.25 | 0.76 | 0.51 | 78 | 1016.0 |
| 20260504204004 | 21 | 353 | 8.0 | 8.0 | 0.25 | 0.76 | 0.51 | 78 | 1016.0 |
| 20260504203004 | 21 | 353 | 8.0 | 8.0 | 0.25 | 0.76 | 0.51 | 78 | 1016.0 |
| 20260504202003 | 21 | 353 | 8.0 | 8.0 | 0.25 | 0.76 | 0.51 | 78 | 1016.0 |
| 20260504200008 | 22 | 353 | 8.0 | 8.0 | 0.25 | 0.76 | 0.51 | 77 | 1016.0 |
| 20260504195002 | 23 | 353 | 8.0 | 8.0 | 0.25 | 0.76 | 0.51 | 75 | 1016.0 |
| 20260504193004 | 25 | 353 | 8.0 | 8.0 | 0.25 | 0.76 | 0.51 | 69 | 1016.0 |
| 20260504192003 | 26 | 353 | 8.0 | 8.0 | 0.25 | 0.76 | 0.51 | 69 | 1016.0 |
| 20260504190003 | 26 | 353 | 8.0 | 8.0 | 0.25 | 0.76 | 0.51 | 69 | 1016.0 |
| 20260504185003 | 27 | 353 | 8.0 | 8.0 | 0.25 | 0.76 | 0.51 | 69 | 1016.0 |
| 20260504184013 | 27 | 353 | 8.0 | 8.0 | 0.25 | 0.76 | 0.51 | 69 | 1016.0 |
| 20260504183003 | 27 | 353 | 8.0 | 8.0 | 0.25 | 0.76 | 0.51 | 69 | 1017.0 |
| 20260504181003 | 28 | 353 | 8.0 | 9.7 | 0.25 | 0.76 | 0.51 | 69 | 1017.0 |
| 20260504175003 | 21 | 15 | 6.4 | 8.0 | 0.25 | 0.76 | 0.51 | 77 | 1017.0 |
| 20260504174005 | 21 | 15 | 6.4 | 8.0 | 0.25 | 0.76 | 0.51 | 77 | 1017.0 |
| 20260504173003 | 21 | 29 | 8.0 | 8.0 | 0.25 | 0.76 | 0.51 | 74 | 1017.0 |
| 20260504171005 | 21 | 29 | 8.0 | 8.0 | 0.25 | 0.76 | 0.51 | 73 | 1017.0 |
| 20260504151003 | 20 | 142 | 6.4 | 6.4 | 0.25 | 0.76 | 0.51 | 74 | 1019.0 |
| 20260504141003 | 19 | 142 | 6.4 | 6.4 | 0.25 | 0.76 | 0.51 | 74 | 1020.0 |